Regional Weather Roundup
Issued by NWS

Home | Current Version | Previous Version | Text Only | Print | Product List | Glossary Off
Versions: 1 2 3 4 5 6 7 8 9 10 11 12 13 14 15 16 17 18 19 20 21 22 23 24 25 26 27 28 29 30 31 32 33 34 35 36 37 38 39 40 41 42 43 44 45 46 47 48 49 50

000
ASUS45 KBOU 280107
RWRCO

WEATHER ROUNDUP FOR COLORADO
NATIONAL WEATHER SERVICE DENVER/BOULDER CO
700 PM MDT SUN JUL 27 2014

NOTE: "FAIR" INDICATES FEW OR NO CLOUDS BELOW 12000 FEET WITH NO
SIGNIFICANT WEATHER AND/OR OBSTRUCTIONS TO VISIBILITY.

COZ001>005-013-030-031-280200-
...NORTHWEST COLORADO...

CITY           SKY/WX    TMP DP  RH WIND       PRES   REMARKS
CRAIG          MOSUNNY   80  39  23 VRB3      30.27F
HAYDEN         MOSUNNY   82  32  16 N5        30.31S
MEEKER         MOSUNNY   83  33  16 N9        30.29S
MOUNT WERNER   NOT AVBL
STEAMBOAT SPGS MOSUNNY   79  46  30 S5        30.33F
WALDEN         MOSUNNY   73  39  29 N6        30.44S
$$

COZ006>008-011-280200-
...WEST CENTRAL VALLEYS...

CITY           SKY/WX    TMP DP  RH WIND       PRES   REMARKS
GRAND JUNCTION PTSUNNY   87  49  26 SE26G33   30.14R
MONTROSE       CLOUDY    80  49  33 W12       30.29S
EAGLE          PTSUNNY   84  39  20 S7        30.31S
RIFLE          PTSUNNY   88  41  19 S16G23    30.18S
DELTA          CLOUDY    79  58  47 S7        30.24R
NUCLA          DRIZZLE   73  52  46 E12       30.30F
$$

COZ017>023-064>068-280200-
...SOUTHWEST COLORADO...

CITY           SKY/WX    TMP DP  RH WIND       PRES   REMARKS
DURANGO        CLOUDY    67  55  65 SE12      30.39R
CORTEZ         SUNNY     86  45  23 N6        30.21R
PAGOSA SPRINGS CLOUDY    62  52  70 N7        30.48S
TELLURIDE      CLOUDY    68  48  49 SE5       30.53S
WOLF CREEK PAS NOT AVBL
$$

COZ009-010-012-014-032>034-037-058>063-280200-
...CENTRAL COLORADO...

CITY           SKY/WX    TMP DP  RH WIND       PRES   REMARKS
ASPEN          CLOUDY    71  44  37 S21G29    30.44R
BUENA VISTA    CLOUDY    62  55  77 E3        30.56R
COPPER MTN     CLOUDY    55  45  67 S16       30.80R
BERTHOUD PASS  CLOUDY    45  32  61 E10       30.85S
COTTONWOOD PAS CLOUDY    57  52  82 CALM      30.68R
GUNNISON       CLOUDY    72  45  37 CALM      30.48R
KREMMLING      CLOUDY    79  32  18 CALM      30.38S
LEADVILLE      CLOUDY    55  49  80 S8        30.65R
MONARCH PASS   FOG       45  45 100 NE14      30.90S VSB<1/4
SALIDA         CLOUDY   N/A N/A N/A CALM      30.58S
SUNLIGHT       CLOUDY    63  43  48 CALM      30.69R
WILKERSON PASS NOT AVBL
$$

COZ069>075-280200-
...SAN LUIS VALLEY/SANGRE DE CRISTO MOUNTAINS...

CITY           SKY/WX    TMP DP  RH WIND       PRES   REMARKS
ALAMOSA        CLOUDY    68  52  56 NE8       30.44S
LA VETA PASS   CLOUDY    54  52  94 CALM      30.67F
SAGUACHE       CLOUDY    68  50  52 S6        30.50S
$$

COZ035-036-038>040-280200-
...NORTHERN COLORADO FRONT RANGE...

CITY           SKY/WX    TMP DP  RH WIND       PRES   REMARKS
DENVER INTL AP CLOUDY    78  57  48 S9        30.31F
DMNS CITY PARK   N/A     77  57  50 SW9       30.32S
AURORA         PTSUNNY   73  58  57 S10       30.36S
FRONT RANGE AP PTSUNNY   77  54  44 S14       30.34F
ERIE MUNI ARPT CLOUDY    81  58  45 NW5       30.29S
BOULDER MUN AP CLOUDY    79  59  50 N5        30.30F
CENTENNIAL     CLOUDY    72  57  59 S12       30.37S
BROOMFIELD     PTSUNNY   79  55  44 SW6       30.34S
FORT COLLINS   CLOUDY    79  59  50 NW7       30.29S
LONGMONT       CLOUDY    83  60  46 W3        30.31S
$$

COZ041-046-047-076>085-087-088-280200-
...PIKES PEAK/PALMER DIVIDE AND SOUTHERN FOOTHILLS...

CITY           SKY/WX    TMP DP  RH WIND       PRES   REMARKS
COLO. SPRINGS  CLOUDY    74  58  57 SE10      30.39R THUNDER
A. F. ACADEMY  CLOUDY    73  56  54 SW6       30.41R
ELLICOTT       TSTM      71  58  63 S10       30.37F
FALCON         CLOUDY    71  54  55 SE15      30.44S
FORT CARSON    CLOUDY    77  59  53 SE6       30.35S
LIMON          CLOUDY    78  54  43 SE18      30.34R
MONUMENT HILL  CLOUDY    64  57  77 CALM      30.44F
TRINIDAD       LGT RAIN  69  60  73 S5        30.34F
$$

COZ042>045-048>051-090-091-280200-
...NORTHEAST COLORADO...

CITY           SKY/WX    TMP DP  RH WIND       PRES   REMARKS
GREELEY ARPT   CLOUDY    81  54  39 SE14G22   30.28R
AKRON          PTSUNNY   81  45  28 SE17G25   30.30R
BURLINGTON     SUNNY     81  46  29 SE10      30.29S
WRAY             N/A     85  44  23 NE13      30.25S
STERLING       PTSUNNY   86  52  30 SE10      30.26R
HOLYOKE        SUNNY     84  50  30 E8        30.27S
FORT MORGAN    PTSUNNY   83  49  30 SE12      30.29R
$$

COZ086-089-092>099-280200-
...SOUTHEAST COLORADO...

CITY           SKY/WX    TMP DP  RH WIND       PRES   REMARKS
PUEBLO         CLOUDY    82  60  47 E9        30.25F
LA JUNTA       CLOUDY    82  63  52 E20G25    30.24S
LAMAR          PTSUNNY   82  59  45 E13       30.23R
SPRINGFIELD      N/A     76  63  64 SE15      30.29R
$$



USA.gov is the U.S. government's official web portal to all federal, state and local government web resources and services.